Data supplied by UK-AIR on 21/3/2017
All Data GMT hour ending 
Status: R =Ratified P=Provisional,P*=As supplied
,,Oxford St Ebbes,,,,,,,,,,,,,,,,,,,,,,,
Date,time,"PM<sub>10</sub> particulate matter (Hourly measured)",status,unit,"Nitric oxide",status,unit,"Nitrogen dioxide",status,unit,"Nitrogen oxides as nitrogen dioxide",status,unit,"Non-volatile PM<sub>10</sub> (Hourly measured)",status,unit,"Non-volatile PM<sub>2.5</sub> (Hourly measured)",status,unit,"PM<sub>2.5</sub> particulate matter (Hourly measured)",status,unit,"Volatile PM<sub>10</sub> (Hourly measured)",status,unit,"Volatile PM<sub>2.5</sub> (Hourly measured)",status,unit
 
01-01-2016,01:00,,,,1.50591,R,ugm-3,7.76348,R,ugm-3,10.07250,R,ugm-3,,,,,,,,,,,,,,,
01-01-2016,02:00,,,,3.43590,R,ugm-3,23.49124,R,ugm-3,28.75954,R,ugm-3,,,,,,,,,,,,,,,
01-01-2016,03:00,,,,2.82389,R,ugm-3,25.39704,R,ugm-3,29.72694,R,ugm-3,,,,,,,,,,,,,,,
01-01-2016,04:00,,,,2.61247,R,ugm-3,25.72121,R,ugm-3,29.72694,R,ugm-3,,,,,,,,,,,,,,,
01-01-2016,05:00,,,,2.85912,R,ugm-3,23.75564,R,ugm-3,28.13957,R,ugm-3,,,,,,,,,,,,,,,
01-01-2016,06:00,,,,3.24735,R,ugm-3,21.62751,R,ugm-3,26.60670,R,ugm-3,,,,,,,,,,,,,,,
01-01-2016,07:00,,,,2.11792,R,ugm-3,17.50033,R,ugm-3,20.74776,R,ugm-3,,,,,,,,,,,,,,,
01-01-2016,08:00,,,,3.24766,R,ugm-3,22.55746,R,ugm-3,27.53713,R,ugm-3,,,,,,,,,,,,,,,
01-01-2016,09:00,,,,2.50645,R,ugm-3,22.05065,R,ugm-3,25.89382,R,ugm-3,,,,,,,,,,,,,,,
01-01-2016,10:00,,,,2.29441,R,ugm-3,17.17616,R,ugm-3,20.69421,R,ugm-3,,,,,,,,,,,,,,,
01-01-2016,11:00,,,,2.43567,R,ugm-3,16.24717,R,ugm-3,19.98180,R,ugm-3,,,,,,,,,,,,,,,
01-01-2016,12:00,,,,2.92960,R,ugm-3,18.61054,R,ugm-3,23.10252,R,ugm-3,,,,,,,,,,,,,,,
01-01-2016,13:00,,,,2.82389,R,ugm-3,17.62225,R,ugm-3,21.95215,R,ugm-3,,,,,,,,,,,,,,,
01-01-2016,14:00,,,,2.61185,R,ugm-3,19.86370,R,ugm-3,23.86848,R,ugm-3,,,,,,,,,,,,,,,
01-01-2016,15:00,,,,2.08268,R,ugm-3,16.51539,R,ugm-3,19.70879,R,ugm-3,,,,,,,,,,,,,,,
01-01-2016,16:00,,,,1.97666,R,ugm-3,15.47260,R,ugm-3,18.50344,R,ugm-3,,,,,,,,,,,,,,,
01-01-2016,17:00,,,,1.72969,R,ugm-3,15.68776,R,ugm-3,18.33992,R,ugm-3,,,,,,,,,,,,,,,
01-01-2016,18:00,,,,1.87095,R,ugm-3,13.55484,R,ugm-3,16.42359,R,ugm-3,,,,,,,,,,,,,,,
01-01-2016,19:00,,,,1.69446,R,ugm-3,9.28184,R,ugm-3,11.87997,R,ugm-3,,,,,,,,,,,,,,,
01-01-2016,20:00,,,,1.48273,R,ugm-3,7.85464,R,ugm-3,10.12812,R,ugm-3,,,,,,,,,,,,,,,
01-01-2016,21:00,,,,1.27069,R,ugm-3,6.97489,R,ugm-3,8.92325,R,ugm-3,,,,,,,,,,,,,,,
01-01-2016,22:00,,,,1.34147,R,ugm-3,6.04493,R,ugm-3,8.10183,R,ugm-3,,,,,,,,,,,,,,,
01-01-2016,23:00,,,,1.20021,R,ugm-3,4.34568,R,ugm-3,6.18598,R,ugm-3,,,,,,,,,,,,,,,
01-01-2016,24:00,,,,1.23545,R,ugm-3,4.12765,R,ugm-3,6.02198,R,ugm-3,,,,,,,,,,,,,,,
02-01-2016,01:00,,,,1.03609,R,ugm-3,4.75575,R,ugm-3,6.34440,R,ugm-3,,,,,,,,,,,,,,,
02-01-2016,02:00,,,,1.17745,R,ugm-3,5.05028,R,ugm-3,6.85568,R,ugm-3,,,,,,,,,,,,,,,
02-01-2016,03:00,,,,0.84785,R,ugm-3,3.95075,R,ugm-3,5.25077,R,ugm-3,,,,,,,,,,,,,,,
02-01-2016,04:00,,,,1.16560,R,ugm-3,3.62753,R,ugm-3,5.41477,R,ugm-3,,,,,,,,,,,,,,,
02-01-2016,05:00,,,,1.09513,R,ugm-3,2.69663,R,ugm-3,4.37580,R,ugm-3,,,,,,,,,,,,,,,
02-01-2016,06:00,,,,1.02466,R,ugm-3,3.29715,R,ugm-3,4.86827,R,ugm-3,,,,,,,,,,,,,,,
02-01-2016,07:00,,,,1.27162,R,ugm-3,4.23141,R,ugm-3,6.18120,R,ugm-3,,,,,,,,,,,,,,,
02-01-2016,08:00,,,,1.97822,R,ugm-3,5.82834,R,ugm-3,8.86157,R,ugm-3,,,,,,,,,,,,,,,
02-01-2016,09:00,,,,1.66047,R,ugm-3,5.98708,R,ugm-3,8.53310,R,ugm-3,,,,,,,,,,,,,,,
02-01-2016,10:00,,,,1.30717,R,ugm-3,5.37986,R,ugm-3,7.38416,R,ugm-3,,,,,,,,,,,,,,,
02-01-2016,11:00,,,,2.29628,R,ugm-3,6.54362,R,ugm-3,10.06453,R,ugm-3,,,,,,,,,,,,,,,
02-01-2016,12:00,,,,1.73094,R,ugm-3,6.20702,R,ugm-3,8.86109,R,ugm-3,,,,,,,,,,,,,,,
02-01-2016,13:00,,,,1.62523,R,ugm-3,7.13458,R,ugm-3,9.62657,R,ugm-3,,,,,,,,,,,,,,,
02-01-2016,14:00,,,,1.41350,R,ugm-3,8.77216,R,ugm-3,10.93950,R,ugm-3,,,,,,,,,,,,,,,
02-01-2016,15:00,,,,1.55445,R,ugm-3,10.90747,R,ugm-3,13.29092,R,ugm-3,,,,,,,,,,,,,,,
02-01-2016,16:00,,,,1.90806,R,ugm-3,16.32797,R,ugm-3,19.25362,R,ugm-3,,,,,,,,,,,,,,,
02-01-2016,17:00,,,,4.69889,R,ugm-3,32.56031,R,ugm-3,39.76518,R,ugm-3,,,,,,,,,,,,,,,
02-01-2016,18:00,,,,4.41607,R,ugm-3,21.50750,R,ugm-3,28.27870,R,ugm-3,,,,,,,,,,,,,,,
02-01-2016,19:00,,,,2.89717,R,ugm-3,15.19386,R,ugm-3,19.63612,R,ugm-3,,,,,,,,,,,,,,,
02-01-2016,20:00,,,,4.38083,R,ugm-3,15.59931,R,ugm-3,22.31648,R,ugm-3,,,,,,,,,,,,,,,
02-01-2016,21:00,,,,2.47340,R,ugm-3,13.32821,R,ugm-3,17.12070,R,ugm-3,,,,,,,,,,,,,,,
02-01-2016,22:00,,,,2.64989,R,ugm-3,15.02603,R,ugm-3,19.08914,R,ugm-3,,,,,,,,,,,,,,,
02-01-2016,23:00,,,,3.10921,R,ugm-3,10.49293,R,ugm-3,15.26032,R,ugm-3,,,,,,,,,,,,,,,
02-01-2016,24:00,,,,1.55476,R,ugm-3,7.35261,R,ugm-3,9.73654,R,ugm-3,,,,,,,,,,,,,,,
03-01-2016,01:00,,,,0.80035,R,ugm-3,3.65861,R,ugm-3,4.88580,R,ugm-3,,,,,,,,,,,,,,,
03-01-2016,02:00,,,,1.08349,R,ugm-3,2.64116,R,ugm-3,4.30249,R,ugm-3,,,,,,,,,,,,,,,
03-01-2016,03:00,,,,1.20115,R,ugm-3,0.89314,R,ugm-3,2.73488,R,ugm-3,,,,,,,,,,,,,,,
03-01-2016,04:00,,,,0.81230,R,ugm-3,1.16137,R,ugm-3,2.40688,R,ugm-3,,,,,,,,,,,,,,,
03-01-2016,05:00,,,,0.95356,R,ugm-3,1.27277,R,ugm-3,2.73488,R,ugm-3,,,,,,,,,,,,,,,
03-01-2016,06:00,,,,1.20115,R,ugm-3,4.61247,R,ugm-3,6.45421,R,ugm-3,,,,,,,,,,,,,,,
03-01-2016,07:00,,,,1.34241,R,ugm-3,6.20080,R,ugm-3,8.25913,R,ugm-3,,,,,,,,,,,,,,,
03-01-2016,08:00,,,,1.02435,R,ugm-3,6.63446,R,ugm-3,8.20510,R,ugm-3,,,,,,,,,,,,,,,
03-01-2016,09:00,,,,1.27162,R,ugm-3,6.69232,R,ugm-3,8.64211,R,ugm-3,,,,,,,,,,,,,,,
03-01-2016,10:00,,,,1.27193,R,ugm-3,6.14534,R,ugm-3,8.09561,R,ugm-3,,,,,,,,,,,,,,,
03-01-2016,11:00,,,,1.51921,R,ugm-3,5.87520,R,ugm-3,8.20463,R,ugm-3,,,,,,,,,,,,,,,
03-01-2016,12:00,,,,1.16591,R,ugm-3,5.97943,R,ugm-3,7.76714,R,ugm-3,,,,,,,,,,,,,,,
03-01-2016,13:00,,,,1.59000,R,ugm-3,6.91512,R,ugm-3,9.35308,R,ugm-3,,,,,,,,,,,,,,,
03-01-2016,14:00,,,,1.66078,R,ugm-3,11.78435,R,ugm-3,14.33084,R,ugm-3,,,,,,,,,,,,,,,
03-01-2016,15:00,,,,2.47308,R,ugm-3,18.68847,R,ugm-3,22.48048,R,ugm-3,,,,,,,,,,,,,,,
03-01-2016,16:00,,,,1.90775,R,ugm-3,14.41356,R,ugm-3,17.33873,R,ugm-3,,,,,,,,,,,,,,,
03-01-2016,17:00,,,,2.15533,R,ugm-3,15.23784,R,ugm-3,18.54264,R,ugm-3,,,,,,,,,,,,,,,
03-01-2016,18:00,,,,2.82638,R,ugm-3,30.23519,R,ugm-3,34.56892,R,ugm-3,,,,,,,,,,,,,,,
03-01-2016,19:00,,,,2.40230,R,ugm-3,24.48574,R,ugm-3,28.16921,R,ugm-3,,,,,,,,,,,,,,,
03-01-2016,20:00,,,,4.80491,R,ugm-3,34.58517,R,ugm-3,41.95260,R,ugm-3,,,,,,,,,,,,,,,
03-01-2016,21:00,,,,11.16396,R,ugm-3,37.08768,R,ugm-3,54.20551,R,ugm-3,,,,,,,,,,,,,,,
03-01-2016,22:00,,,,4.13355,R,ugm-3,26.86345,R,ugm-3,33.20148,R,ugm-3,,,,,,,,,,,,,,,
03-01-2016,23:00,,,,2.08455,R,ugm-3,30.98967,R,ugm-3,34.18594,R,ugm-3,,,,,,,,,,,,,,,
03-01-2016,24:00,,,,1.80173,R,ugm-3,20.92132,R,ugm-3,23.68392,R,ugm-3,,,,,,,,,,,,,,,
04-01-2016,01:00,,,,1.36746,R,ugm-3,14.66314,R,ugm-3,16.75988,R,ugm-3,,,,,,,,,,,,,,,
04-01-2016,02:00,,,,0.89556,R,ugm-3,10.35874,R,ugm-3,11.73191,R,ugm-3,,,,,,,,,,,,,,,
04-01-2016,03:00,,,,1.09607,R,ugm-3,8.04684,R,ugm-3,9.72745,R,ugm-3,,,,,,,,,,,,,,,
04-01-2016,04:00,,,,1.41444,R,ugm-3,8.10565,R,ugm-3,10.27443,R,ugm-3,,,,,,,,,,,,,,,
04-01-2016,05:00,,,,1.16654,R,ugm-3,7.55629,R,ugm-3,9.34495,R,ugm-3,,,,,,,,,,,,,,,
04-01-2016,06:00,,,,1.66172,R,ugm-3,18.32844,R,ugm-3,20.87637,R,ugm-3,,,,,,,,,,,,,,,
04-01-2016,07:00,,,,3.11170,R,ugm-3,30.53306,R,ugm-3,35.30427,R,ugm-3,,,,,,,,,,,,,,,
04-01-2016,08:00,,,,6.68366,R,ugm-3,45.38506,R,ugm-3,55.63319,R,ugm-3,,,,,,,,,,,,,,,
04-01-2016,09:00,,,,11.20949,R,ugm-3,48.39199,R,ugm-3,65.57963,R,ugm-3,,,,,,,,,,,,,,,
04-01-2016,10:00,,,,8.62789,R,ugm-3,40.81897,R,ugm-3,54.04821,R,ugm-3,,,,,,,,,,,,,,,
04-01-2016,11:00,,,,6.96617,R,ugm-3,31.23495,R,ugm-3,41.91626,R,ugm-3,,,,,,,,,,,,,,,
04-01-2016,12:00,,,,4.63216,R,ugm-3,15.52233,R,ugm-3,22.62488,R,ugm-3,,,,,,,,,,,,,,,
04-01-2016,13:00,,,,3.28820,R,ugm-3,10.09609,R,ugm-3,15.13792,R,ugm-3,,,,,,,,,,,,,,,
04-01-2016,14:00,,,,4.10175,R,ugm-3,13.38511,R,ugm-3,19.67437,R,ugm-3,,,,,,,,,,,,,,,
04-01-2016,15:00,,,,4.27886,R,ugm-3,16.77502,R,ugm-3,23.33585,R,ugm-3,,,,,,,,,,,,,,,
04-01-2016,16:00,,,,10.32546,R,ugm-3,31.71308,R,ugm-3,47.54523,R,ugm-3,,,,,,,,,,,,,,,
04-01-2016,17:00,,,,20.33255,R,ugm-3,55.71686,R,ugm-3,86.89300,R,ugm-3,,,,,,,,,,,,,,,
04-01-2016,18:00,,,,6.47099,R,ugm-3,40.24665,R,ugm-3,50.16870,R,ugm-3,,,,,,,,,,,,,,,
04-01-2016,19:00,,,,3.74814,R,ugm-3,33.16323,R,ugm-3,38.91029,R,ugm-3,,,,,,,,,,,,,,,
04-01-2016,20:00,,,,3.43008,R,ugm-3,31.57442,R,ugm-3,36.83379,R,ugm-3,,,,,,,,,,,,,,,
04-01-2016,21:00,,,,1.62648,R,ugm-3,16.03153,R,ugm-3,18.52543,R,ugm-3,,,,,,,,,,,,,,,
04-01-2016,22:00,,,,1.87407,R,ugm-3,20.84434,R,ugm-3,23.71787,R,ugm-3,,,,,,,,,,,,,,,
04-01-2016,23:00,,,,1.13161,R,ugm-3,12.58282,R,ugm-3,14.31793,R,ugm-3,,,,,,,,,,,,,,,
04-01-2016,24:00,,,,1.62648,R,ugm-3,12.20653,R,ugm-3,14.70043,R,ugm-3,,,,,,,,,,,,,,,
05-01-2016,01:00,,,,1.50882,R,ugm-3,11.30096,R,ugm-3,13.61445,R,ugm-3,,,,,,,,,,,,,,,
05-01-2016,02:00,,,,1.41444,R,ugm-3,8.38759,R,ugm-3,10.55636,R,ugm-3,,,,,,,,,,,,,,,
05-01-2016,03:00,,,,0.81324,R,ugm-3,7.37986,R,ugm-3,8.62681,R,ugm-3,,,,,,,,,,,,,,,
05-01-2016,04:00,,,,1.34397,R,ugm-3,7.33061,R,ugm-3,9.39133,R,ugm-3,,,,,,,,,,,,,,,
05-01-2016,05:00,,,,1.20209,R,ugm-3,11.47978,R,ugm-3,13.32295,R,ugm-3,,,,,,,,,,,,,,,
05-01-2016,06:00,,,,2.12166,R,ugm-3,18.36861,R,ugm-3,21.62177,R,ugm-3,,,,,,,,,,,,,,,
05-01-2016,07:00,,,,4.80897,R,ugm-3,30.19216,R,ugm-3,37.56580,R,ugm-3,,,,,,,,,,,,,,,
05-01-2016,08:00,,,,5.16289,R,ugm-3,38.27725,R,ugm-3,46.19357,R,ugm-3,,,,,,,,,,,,,,,
05-01-2016,09:00,,,,11.06823,R,ugm-3,38.50484,R,ugm-3,55.47589,R,ugm-3,,,,,,,,,,,,,,,
05-01-2016,10:00,,,,10.11311,R,ugm-3,36.31073,R,ugm-3,51.81728,R,ugm-3,,,,,,,,,,,,,,,
05-01-2016,11:00,,,,7.30793,R,ugm-3,29.34604,R,ugm-3,40.55138,R,ugm-3,,,,,,,,,,,,,,,
05-01-2016,12:00,,,,,,,,,,,,,,,,,,,,,,,,,,,
05-01-2016,13:00,,,,7.92098,R,ugm-3,27.98657,R,ugm-3,40.13190,R,ugm-3,,,,,,,,,,,,,,,
05-01-2016,14:00,,,,6.22372,R,ugm-3,24.31027,R,ugm-3,33.85316,R,ugm-3,,,,,,,,,,,,,,,
05-01-2016,15:00,,,,3.88971,R,ugm-3,22.75636,R,ugm-3,28.72049,R,ugm-3,,,,,,,,,,,,,,,
05-01-2016,16:00,,,,7.56737,R,ugm-3,32.24188,R,ugm-3,43.84502,R,ugm-3,,,,,,,,,,,,,,,
05-01-2016,17:00,,,,26.62705,R,ugm-3,38.61816,R,ugm-3,79.44573,R,ugm-3,,,,,,,,,,,,,,,
05-01-2016,18:00,,,,59.97206,R,ugm-3,46.29637,R,ugm-3,138.25223,R,ugm-3,,,,,,,,,,,,,,,
05-01-2016,19:00,,,,68.14062,R,ugm-3,53.86461,R,ugm-3,158.34544,R,ugm-3,,,,,,,,,,,,,,,
05-01-2016,20:00,,,,69.97946,R,ugm-3,52.13714,R,ugm-3,159.43748,R,ugm-3,,,,,,,,,,,,,,,
05-01-2016,21:00,,,,48.76226,R,ugm-3,47.32194,R,ugm-3,122.08970,R,ugm-3,,,,,,,,,,,,,,,
05-01-2016,22:00,,,,22.27740,R,ugm-3,46.65257,R,ugm-3,80.81078,R,ugm-3,,,,,,,,,,,,,,,
05-01-2016,23:00,,,,32.17847,R,ugm-3,38.56939,R,ugm-3,87.90902,R,ugm-3,,,,,,,,,,,,,,,
05-01-2016,24:00,,,,61.81120,R,ugm-3,32.82854,R,ugm-3,127.60439,R,ugm-3,,,,,,,,,,,,,,,
06-01-2016,01:00,,,,53.74865,R,ugm-3,33.63323,R,ugm-3,116.04668,R,ugm-3,,,,,,,,,,,,,,,
06-01-2016,02:00,21.600,R,ugm-3 (TEOM FDMS),61.43410,R,ugm-3,29.12993,R,ugm-3,123.32756,R,ugm-3,19.800,R,ugm-3 (TEOM FDMS),,,,,,,1.800,R,ugm-3 (TEOM FDMS),,,
06-01-2016,03:00,19.600,R,ugm-3 (TEOM FDMS),53.78420,R,ugm-3,26.40828,R,ugm-3,108.87623,R,ugm-3,17.600,R,ugm-3 (TEOM FDMS),,,,,,,2.000,R,ugm-3 (TEOM FDMS),,,
06-01-2016,04:00,18.100,R,ugm-3 (TEOM FDMS),52.54657,R,ugm-3,25.46685,R,ugm-3,106.03713,R,ugm-3,16.200,R,ugm-3 (TEOM FDMS),,,,,,,1.900,R,ugm-3 (TEOM FDMS),,,
06-01-2016,05:00,20.000,R,ugm-3 (TEOM FDMS),51.37941,R,ugm-3,30.36859,R,ugm-3,109.14924,R,ugm-3,17.600,R,ugm-3 (TEOM FDMS),,,,,,,2.400,R,ugm-3 (TEOM FDMS),,,
06-01-2016,06:00,17.200,R,ugm-3 (TEOM FDMS),38.93229,R,ugm-3,34.11087,R,ugm-3,93.80621,R,ugm-3,16.300,R,ugm-3 (TEOM FDMS),,,,,,,0.900,R,ugm-3 (TEOM FDMS),,,
06-01-2016,07:00,18.400,R,ugm-3 (TEOM FDMS),22.59546,R,ugm-3,37.37408,R,ugm-3,72.01997,R,ugm-3,16.000,R,ugm-3 (TEOM FDMS),,,,,,,2.400,R,ugm-3 (TEOM FDMS),,,
06-01-2016,08:00,15.400,R,ugm-3 (TEOM FDMS),17.57446,R,ugm-3,41.52372,R,ugm-3,68.47085,R,ugm-3,13.900,R,ugm-3 (TEOM FDMS),,,,,,,1.500,R,ugm-3 (TEOM FDMS),,,
06-01-2016,09:00,18.400,R,ugm-3 (TEOM FDMS),23.79786,R,ugm-3,38.09700,R,ugm-3,74.58654,R,ugm-3,15.800,R,ugm-3 (TEOM FDMS),,,,,,,2.600,R,ugm-3 (TEOM FDMS),,,
06-01-2016,10:00,17.000,R,ugm-3 (TEOM FDMS),28.46557,R,ugm-3,37.87372,R,ugm-3,81.52031,R,ugm-3,14.700,R,ugm-3 (TEOM FDMS),,,,,,,2.300,R,ugm-3 (TEOM FDMS),,,
06-01-2016,11:00,14.500,R,ugm-3 (TEOM FDMS),14.60370,R,ugm-3,30.51728,R,ugm-3,52.90931,R,ugm-3,12.100,R,ugm-3 (TEOM FDMS),,,,,,,2.400,R,ugm-3 (TEOM FDMS),,,
06-01-2016,12:00,11.400,R,ugm-3 (TEOM FDMS),11.06823,R,ugm-3,27.20197,R,ugm-3,44.17301,R,ugm-3,7.100,R,ugm-3 (TEOM FDMS),,,,,,,4.300,R,ugm-3 (TEOM FDMS),,,
06-01-2016,13:00,14.000,R,ugm-3 (TEOM FDMS),10.21944,R,ugm-3,29.48645,R,ugm-3,45.15604,R,ugm-3,8.400,R,ugm-3 (TEOM FDMS),,,,,,,5.600,R,ugm-3 (TEOM FDMS),,,
06-01-2016,14:00,12.600,R,ugm-3 (TEOM FDMS),6.40021,R,ugm-3,28.13479,R,ugm-3,37.94830,R,ugm-3,8.300,R,ugm-3 (TEOM FDMS),,,,,,,4.300,R,ugm-3 (TEOM FDMS),,,
06-01-2016,15:00,10.400,R,ugm-3 (TEOM FDMS),9.40589,R,ugm-3,31.17040,R,ugm-3,45.59257,R,ugm-3,8.500,R,ugm-3 (TEOM FDMS),,,,,,,1.900,R,ugm-3 (TEOM FDMS),,,
06-01-2016,16:00,,,,14.14438,R,ugm-3,29.52900,R,ugm-3,51.21675,R,ugm-3,,,,,,,,,,,,,,,
06-01-2016,17:00,17.700,R,ugm-3 (TEOM FDMS),13.61397,R,ugm-3,39.40563,R,ugm-3,60.28009,R,ugm-3,12.300,R,ugm-3 (TEOM FDMS),,,,,,,5.400,R,ugm-3 (TEOM FDMS),,,
06-01-2016,18:00,27.800,R,ugm-3 (TEOM FDMS),13.86156,R,ugm-3,42.84861,R,ugm-3,64.10270,R,ugm-3,18.700,R,ugm-3 (TEOM FDMS),,,,,,,9.100,R,ugm-3 (TEOM FDMS),,,
06-01-2016,19:00,,,,15.62960,R,ugm-3,41.39367,R,ugm-3,65.35873,R,ugm-3,,,,,,,,,,,,,,,
06-01-2016,20:00,31.900,R,ugm-3 (TEOM FDMS),15.87688,R,ugm-3,37.84694,R,ugm-3,62.19115,R,ugm-3,22.600,R,ugm-3 (TEOM FDMS),,,,,,,9.300,R,ugm-3 (TEOM FDMS),,,
06-01-2016,21:00,30.700,R,ugm-3 (TEOM FDMS),13.64952,R,ugm-3,38.96958,R,ugm-3,59.89854,R,ugm-3,21.100,R,ugm-3 (TEOM FDMS),,,,,,,9.600,R,ugm-3 (TEOM FDMS),,,
06-01-2016,22:00,24.800,R,ugm-3 (TEOM FDMS),4.03096,R,ugm-3,34.88018,R,ugm-3,41.06090,R,ugm-3,18.100,R,ugm-3 (TEOM FDMS),,,,,,,6.700,R,ugm-3 (TEOM FDMS),,,
06-01-2016,23:00,,,,3.18249,R,ugm-3,27.88138,R,ugm-3,32.76113,R,ugm-3,,,,,,,,,,,,,,,
06-01-2016,24:00,18.700,R,ugm-3 (TEOM FDMS),1.62679,R,ugm-3,18.85486,R,ugm-3,21.34924,R,ugm-3,9.700,R,ugm-3 (TEOM FDMS),,,,,,,9.000,R,ugm-3 (TEOM FDMS),,,
07-01-2016,01:00,12.000,R,ugm-3 (TEOM FDMS),1.27266,R,ugm-3,14.86650,R,ugm-3,16.81789,R,ugm-3,6.900,R,ugm-3 (TEOM FDMS),,,,,,,5.100,R,ugm-3 (TEOM FDMS),,,
07-01-2016,02:00,11.700,R,ugm-3 (TEOM FDMS),1.03734,R,ugm-3,11.36854,R,ugm-3,12.95910,R,ugm-3,5.500,R,ugm-3 (TEOM FDMS),,,,,,,6.200,R,ugm-3 (TEOM FDMS),,,
07-01-2016,03:00,5.100,R,ugm-3 (TEOM FDMS),0.88402,R,ugm-3,3.77719,R,ugm-3,5.13267,R,ugm-3,-0.300,R,ugm-3 (TEOM FDMS),,,,,,,5.400,R,ugm-3 (TEOM FDMS),,,
07-01-2016,04:00,2.400,R,ugm-3 (TEOM FDMS),0.77769,R,ugm-3,1.75615,R,ugm-3,2.94860,R,ugm-3,-3.400,R,ugm-3 (TEOM FDMS),,,,,,,5.800,R,ugm-3 (TEOM FDMS),,,
07-01-2016,05:00,1.800,R,ugm-3 (TEOM FDMS),0.84848,R,ugm-3,2.13913,R,ugm-3,3.44011,R,ugm-3,-3.500,R,ugm-3 (TEOM FDMS),,,,,,,5.300,R,ugm-3 (TEOM FDMS),,,
07-01-2016,06:00,0.600,R,ugm-3 (TEOM FDMS),1.02559,R,ugm-3,4.10614,R,ugm-3,5.67869,R,ugm-3,-2.800,R,ugm-3 (TEOM FDMS),,,,,,,3.400,R,ugm-3 (TEOM FDMS),,,
07-01-2016,07:00,3.500,R,ugm-3 (TEOM FDMS),2.33401,R,ugm-3,10.56322,R,ugm-3,14.14198,R,ugm-3,-0.300,R,ugm-3 (TEOM FDMS),,,,,,,3.800,R,ugm-3 (TEOM FDMS),,,
07-01-2016,08:00,1.200,R,ugm-3 (TEOM FDMS),4.73818,R,ugm-3,27.07909,R,ugm-3,34.34420,R,ugm-3,-0.600,R,ugm-3 (TEOM FDMS),,,,,,,1.800,R,ugm-3 (TEOM FDMS),,,
07-01-2016,09:00,4.600,R,ugm-3 (TEOM FDMS),8.83993,R,ugm-3,30.50916,R,ugm-3,44.06352,R,ugm-3,3.200,R,ugm-3 (TEOM FDMS),,,,,,,1.400,R,ugm-3 (TEOM FDMS),,,
07-01-2016,10:00,5.100,R,ugm-3 (TEOM FDMS),4.13729,R,ugm-3,15.38750,R,ugm-3,21.73126,R,ugm-3,3.900,R,ugm-3 (TEOM FDMS),,,,,,,1.200,R,ugm-3 (TEOM FDMS),,,
07-01-2016,11:00,,,,2.15689,R,ugm-3,12.47237,R,ugm-3,15.77956,R,ugm-3,,,,,,,,,,,,,,,
07-01-2016,12:00,,,,2.89997,R,ugm-3,9.69542,R,ugm-3,14.14198,R,ugm-3,,,,,,,,,,,,,,,
07-01-2016,13:00,,,,2.58129,R,ugm-3,7.45397,R,ugm-3,11.41189,R,ugm-3,,,,,,,,,,,,,,,
07-01-2016,14:00,5.300,R,ugm-3 (TEOM FDMS),2.58129,R,ugm-3,7.39946,R,ugm-3,11.35738,R,ugm-3,6.100,R,ugm-3 (TEOM FDMS),,,,,,,-0.800,R,ugm-3 (TEOM FDMS),,,
07-01-2016,15:00,7.600,R,ugm-3 (TEOM FDMS),3.81923,R,ugm-3,11.07003,R,ugm-3,16.92610,R,ugm-3,7.300,R,ugm-3 (TEOM FDMS),,,,,,,0.300,R,ugm-3 (TEOM FDMS),,,
07-01-2016,16:00,7.800,R,ugm-3 (TEOM FDMS),6.71858,R,ugm-3,16.72625,R,ugm-3,27.02793,R,ugm-3,7.900,R,ugm-3 (TEOM FDMS),,,,,,,-0.100,R,ugm-3 (TEOM FDMS),,,
07-01-2016,17:00,,,,3.78369,R,ugm-3,11.94404,R,ugm-3,17.74561,R,ugm-3,,,,,,,,,,,,,,,
07-01-2016,18:00,8.200,R,ugm-3 (TEOM FDMS),4.27886,R,ugm-3,13.58736,R,ugm-3,20.14819,R,ugm-3,8.400,R,ugm-3 (TEOM FDMS),,,,,,,-0.200,R,ugm-3 (TEOM FDMS),,,
07-01-2016,19:00,6.900,R,ugm-3 (TEOM FDMS),3.07647,R,ugm-3,11.88141,R,ugm-3,16.59859,R,ugm-3,6.600,R,ugm-3 (TEOM FDMS),,,,,,,0.300,R,ugm-3 (TEOM FDMS),,,
07-01-2016,20:00,7.200,R,ugm-3 (TEOM FDMS),2.79364,R,ugm-3,11.76953,R,ugm-3,16.05305,R,ugm-3,7.300,R,ugm-3 (TEOM FDMS),,,,,,,-0.100,R,ugm-3 (TEOM FDMS),,,
07-01-2016,21:00,7.700,R,ugm-3 (TEOM FDMS),2.26291,R,ugm-3,10.29021,R,ugm-3,13.75996,R,ugm-3,7.100,R,ugm-3 (TEOM FDMS),,,,,,,0.600,R,ugm-3 (TEOM FDMS),,,
07-01-2016,22:00,10.300,R,ugm-3 (TEOM FDMS),2.33370,R,ugm-3,12.36575,R,ugm-3,15.94403,R,ugm-3,10.500,R,ugm-3 (TEOM FDMS),,,,,,,-0.200,R,ugm-3 (TEOM FDMS),,,
07-01-2016,23:00,12.000,R,ugm-3 (TEOM FDMS),3.11170,R,ugm-3,23.02124,R,ugm-3,27.79245,R,ugm-3,10.600,R,ugm-3 (TEOM FDMS),,,,,,,1.400,R,ugm-3 (TEOM FDMS),,,
07-01-2016,24:00,10.900,R,ugm-3 (TEOM FDMS),2.22737,R,ugm-3,17.55197,R,ugm-3,20.96722,R,ugm-3,11.400,R,ugm-3 (TEOM FDMS),,,,,,,-0.500,R,ugm-3 (TEOM FDMS),,,
08-01-2016,01:00,11.200,R,ugm-3 (TEOM FDMS),1.60278,R,ugm-3,16.25243,R,ugm-3,18.70999,R,ugm-3,8.500,R,ugm-3 (TEOM FDMS),,,,,,,2.700,R,ugm-3 (TEOM FDMS),,,
08-01-2016,02:00,7.900,R,ugm-3 (TEOM FDMS),1.50882,R,ugm-3,10.42695,R,ugm-3,12.74044,R,ugm-3,7.400,R,ugm-3 (TEOM FDMS),,,,,,,0.500,R,ugm-3 (TEOM FDMS),,,
08-01-2016,03:00,8.100,R,ugm-3 (TEOM FDMS),1.13161,R,ugm-3,14.53643,R,ugm-3,16.27155,R,ugm-3,7.400,R,ugm-3 (TEOM FDMS),,,,,,,0.700,R,ugm-3 (TEOM FDMS),,,
08-01-2016,04:00,6.900,R,ugm-3 (TEOM FDMS),1.44999,R,ugm-3,7.60506,R,ugm-3,9.82834,R,ugm-3,4.500,R,ugm-3 (TEOM FDMS),,,,,,,2.400,R,ugm-3 (TEOM FDMS),,,
08-01-2016,05:00,7.600,R,ugm-3 (TEOM FDMS),1.09638,R,ugm-3,8.47477,R,ugm-3,10.15585,R,ugm-3,5.700,R,ugm-3 (TEOM FDMS),,,,,,,1.900,R,ugm-3 (TEOM FDMS),,,
08-01-2016,06:00,9.300,R,ugm-3 (TEOM FDMS),9.15830,R,ugm-3,38.97579,R,ugm-3,53.01833,R,ugm-3,7.100,R,ugm-3 (TEOM FDMS),,,,,,,2.200,R,ugm-3 (TEOM FDMS),,,
08-01-2016,07:00,12.200,R,ugm-3 (TEOM FDMS),6.75382,R,ugm-3,38.94950,R,ugm-3,49.30521,R,ugm-3,9.300,R,ugm-3 (TEOM FDMS),,,,,,,2.900,R,ugm-3 (TEOM FDMS),,,
08-01-2016,08:00,12.700,R,ugm-3 (TEOM FDMS),28.04118,R,ugm-3,60.52919,R,ugm-3,103.52506,R,ugm-3,10.000,R,ugm-3 (TEOM FDMS),,,,,,,2.700,R,ugm-3 (TEOM FDMS),,,
08-01-2016,09:00,,,,31.15319,R,ugm-3,58.70610,R,ugm-3,106.47366,R,ugm-3,,,,,,,,,,,,,,,
08-01-2016,10:00,11.900,R,ugm-3 (TEOM FDMS),31.50680,R,ugm-3,51.61216,R,ugm-3,99.92191,R,ugm-3,12.000,R,ugm-3 (TEOM FDMS),,,,,,,-0.100,R,ugm-3 (TEOM FDMS),,,
08-01-2016,11:00,11.700,R,ugm-3 (TEOM FDMS),9.05259,R,ugm-3,31.11159,R,ugm-3,44.99204,R,ugm-3,10.100,R,ugm-3 (TEOM FDMS),,,,,,,1.600,R,ugm-3 (TEOM FDMS),,,
08-01-2016,12:00,,,,5.79901,R,ugm-3,20.81183,R,ugm-3,29.70352,R,ugm-3,,,,,,,,,,,,,,,
08-01-2016,13:00,10.100,R,ugm-3 (TEOM FDMS),5.48095,R,ugm-3,17.53189,R,ugm-3,25.93589,R,ugm-3,7.900,R,ugm-3 (TEOM FDMS),,,,,,,2.200,R,ugm-3 (TEOM FDMS),,,
08-01-2016,14:00,,,,2.68731,R,ugm-3,11.60505,R,ugm-3,15.72553,R,ugm-3,,,,,,,,,,,,,,,
08-01-2016,15:00,12.700,R,ugm-3 (TEOM FDMS),3.85416,R,ugm-3,21.44534,R,ugm-3,27.35497,R,ugm-3,10.800,R,ugm-3 (TEOM FDMS),,,,,,,1.900,R,ugm-3 (TEOM FDMS),,,
08-01-2016,16:00,12.300,R,ugm-3 (TEOM FDMS),5.30383,R,ugm-3,22.88163,R,ugm-3,31.01406,R,ugm-3,11.200,R,ugm-3 (TEOM FDMS),,,,,,,1.100,R,ugm-3 (TEOM FDMS),,,
08-01-2016,17:00,13.200,R,ugm-3 (TEOM FDMS),4.70295,R,ugm-3,34.61434,R,ugm-3,41.82542,R,ugm-3,12.000,R,ugm-3 (TEOM FDMS),,,,,,,1.200,R,ugm-3 (TEOM FDMS),,,
08-01-2016,18:00,,,,20.86296,R,ugm-3,56.02860,R,ugm-3,88.01803,R,ugm-3,,,,,,,,,,,,,,,
08-01-2016,19:00,12.800,R,ugm-3 (TEOM FDMS),14.88684,R,ugm-3,52.74340,R,ugm-3,75.56957,R,ugm-3,11.400,R,ugm-3 (TEOM FDMS),,,,,,,1.400,R,ugm-3 (TEOM FDMS),,,
08-01-2016,20:00,11.500,R,ugm-3 (TEOM FDMS),13.96758,R,ugm-3,52.02287,R,ugm-3,73.43952,R,ugm-3,10.100,R,ugm-3 (TEOM FDMS),,,,,,,1.400,R,ugm-3 (TEOM FDMS),,,
08-01-2016,21:00,18.600,R,ugm-3 (TEOM FDMS),15.06395,R,ugm-3,57.11251,R,ugm-3,80.21025,R,ugm-3,16.300,R,ugm-3 (TEOM FDMS),,,,,,,2.300,R,ugm-3 (TEOM FDMS),,,
08-01-2016,22:00,16.400,R,ugm-3 (TEOM FDMS),9.47667,R,ugm-3,45.20385,R,ugm-3,59.73455,R,ugm-3,13.300,R,ugm-3 (TEOM FDMS),,,,,,,3.100,R,ugm-3 (TEOM FDMS),,,
08-01-2016,23:00,11.700,R,ugm-3 (TEOM FDMS),3.39453,R,ugm-3,28.81229,R,ugm-3,34.01716,R,ugm-3,8.300,R,ugm-3 (TEOM FDMS),,,,,,,3.400,R,ugm-3 (TEOM FDMS),,,
08-01-2016,24:00,6.300,R,ugm-3 (TEOM FDMS),2.01533,R,ugm-3,21.09822,R,ugm-3,24.18834,R,ugm-3,4.200,R,ugm-3 (TEOM FDMS),,,,,,,2.100,R,ugm-3 (TEOM FDMS),,,
09-01-2016,01:00,4.700,R,ugm-3 (TEOM FDMS),2.02686,R,ugm-3,19.24230,R,ugm-3,22.35011,R,ugm-3,1.600,R,ugm-3 (TEOM FDMS),,,,,,,3.100,R,ugm-3 (TEOM FDMS),,,
09-01-2016,02:00,6.600,R,ugm-3 (TEOM FDMS),1.60320,R,ugm-3,22.14866,R,ugm-3,24.60686,R,ugm-3,3.000,R,ugm-3 (TEOM FDMS),,,,,,,3.600,R,ugm-3 (TEOM FDMS),,,
09-01-2016,03:00,7.900,R,ugm-3 (TEOM FDMS),1.52046,R,ugm-3,13.50321,R,ugm-3,15.83454,R,ugm-3,4.900,R,ugm-3 (TEOM FDMS),,,,,,,3.000,R,ugm-3 (TEOM FDMS),,,
09-01-2016,04:00,8.100,R,ugm-3 (TEOM FDMS),1.09607,R,ugm-3,11.86085,R,ugm-3,13.54146,R,ugm-3,5.100,R,ugm-3 (TEOM FDMS),,,,,,,3.000,R,ugm-3 (TEOM FDMS),,,
09-01-2016,05:00,6.600,R,ugm-3 (TEOM FDMS),1.23732,R,ugm-3,13.93687,R,ugm-3,15.83407,R,ugm-3,4.400,R,ugm-3 (TEOM FDMS),,,,,,,2.200,R,ugm-3 (TEOM FDMS),,,
09-01-2016,06:00,9.800,R,ugm-3 (TEOM FDMS),1.76774,R,ugm-3,14.05257,R,ugm-3,16.76306,R,ugm-3,4.600,R,ugm-3 (TEOM FDMS),,,,,,,5.200,R,ugm-3 (TEOM FDMS),,,
09-01-2016,07:00,6.400,R,ugm-3 (TEOM FDMS),1.87407,R,ugm-3,23.55339,R,ugm-3,26.42693,R,ugm-3,2.300,R,ugm-3 (TEOM FDMS),,,,,,,4.100,R,ugm-3 (TEOM FDMS),,,
09-01-2016,08:00,5.400,R,ugm-3 (TEOM FDMS),2.47527,R,ugm-3,18.15441,R,ugm-3,21.94976,R,ugm-3,4.200,R,ugm-3 (TEOM FDMS),,,,,,,1.200,R,ugm-3 (TEOM FDMS),,,
09-01-2016,09:00,,,,1.98040,R,ugm-3,17.27513,R,ugm-3,20.31171,R,ugm-3,,,,,,,,,,,,,,,
09-01-2016,10:00,7.600,R,ugm-3 (TEOM FDMS),3.67735,R,ugm-3,21.55340,R,ugm-3,27.19193,R,ugm-3,5.400,R,ugm-3 (TEOM FDMS),,,,,,,2.200,R,ugm-3 (TEOM FDMS),,,
09-01-2016,11:00,8.200,R,ugm-3 (TEOM FDMS),2.79333,R,ugm-3,19.68728,R,ugm-3,23.97032,R,ugm-3,6.900,R,ugm-3 (TEOM FDMS),,,,,,,1.300,R,ugm-3 (TEOM FDMS),,,
09-01-2016,12:00,6.000,R,ugm-3 (TEOM FDMS),3.25327,R,ugm-3,14.83239,R,ugm-3,19.82067,R,ugm-3,3.700,R,ugm-3 (TEOM FDMS),,,,,,,2.300,R,ugm-3 (TEOM FDMS),,,
09-01-2016,13:00,11.500,R,ugm-3 (TEOM FDMS),3.46531,R,ugm-3,13.90674,R,ugm-3,19.22015,R,ugm-3,7.200,R,ugm-3 (TEOM FDMS),,,,,,,4.300,R,ugm-3 (TEOM FDMS),,,
09-01-2016,14:00,10.300,R,ugm-3 (TEOM FDMS),2.44003,R,ugm-3,13.89479,R,ugm-3,17.63612,R,ugm-3,5.900,R,ugm-3 (TEOM FDMS),,,,,,,4.400,R,ugm-3 (TEOM FDMS),,,
09-01-2016,15:00,16.200,R,ugm-3 (TEOM FDMS),2.33370,R,ugm-3,13.34877,R,ugm-3,16.92706,R,ugm-3,11.200,R,ugm-3 (TEOM FDMS),,,,,,,5.000,R,ugm-3 (TEOM FDMS),,,
09-01-2016,16:00,11.700,R,ugm-3 (TEOM FDMS),1.62679,R,ugm-3,10.55604,R,ugm-3,13.05042,R,ugm-3,7.600,R,ugm-3 (TEOM FDMS),,,,,,,4.100,R,ugm-3 (TEOM FDMS),,,
09-01-2016,17:00,7.100,R,ugm-3 (TEOM FDMS),1.66203,R,ugm-3,8.75447,R,ugm-3,11.30288,R,ugm-3,2.600,R,ugm-3 (TEOM FDMS),,,,,,,4.500,R,ugm-3 (TEOM FDMS),,,
09-01-2016,18:00,6.800,R,ugm-3 (TEOM FDMS),2.01533,R,ugm-3,11.10637,R,ugm-3,14.19649,R,ugm-3,2.900,R,ugm-3 (TEOM FDMS),,,,,,,3.900,R,ugm-3 (TEOM FDMS),,,
09-01-2016,19:00,11.200,R,ugm-3 (TEOM FDMS),1.37920,R,ugm-3,7.55007,R,ugm-3,9.66482,R,ugm-3,6.900,R,ugm-3 (TEOM FDMS),,,,,,,4.300,R,ugm-3 (TEOM FDMS),,,